Location: 22
(39.7117°N, 89.5929°W)
Time: 18:48:24
(UTC-05:00)

Gurwin Techsat 1B - Pass Details

Date: 05 April 2023
Orbit: 811 x 813 km, 98.9° (Epoch: 06 June)

Event Time Altitude Azimuth Distance (km) Brightness Sun altitude
Rises 03:55:01 0° 13° (NNE) 3,346 12.5 -29.2°
Reaches altitude 10° 03:57:22 10° 14° (NNE) 2,410 11.7 -28.9°
Enters shadow 04:02:29 83° 22° (NNE) 825 8.5 -28.1°
